TimeCDT,TemperatureF,Dew PointF,Humidity,Sea Level PressureIn,VisibilityMPH,Wind Direction,Wind SpeedMPH,Gust SpeedMPH,PrecipitationIn,Events,Conditions,WindDirDegrees,DateUTC
12:15 AM,58.5,41.0,52,29.66,10.0,SSE,12.7,-,N/A,,Overcast,160,2013-04-08 05:15:00
12:35 AM,58.1,41.4,54,29.66,10.0,South,12.7,-,N/A,,Mostly Cloudy,170,2013-04-08 05:35:00
1:15 AM,57.0,44.6,63,29.67,10.0,South,11.5,-,N/A,Rain,Light Rain,190,2013-04-08 06:15:00
1:35 AM,55.6,48.0,76,29.66,10.0,South,9.2,-,N/A,,Drizzle,190,2013-04-08 06:35:00
1:55 AM,54.7,49.5,83,29.66,10.0,SSW,6.9,-,N/A,,Light Drizzle,200,2013-04-08 06:55:00
2:15 AM,54.5,49.8,84,29.65,10.0,SW,8.1,-,N/A,,Mostly Cloudy,230,2013-04-08 07:15:00
2:55 AM,54.3,49.1,83,29.64,10.0,WSW,8.1,-,N/A,,Clear,240,2013-04-08 07:55:00
3:15 AM,52.9,48.4,85,29.64,10.0,WSW,6.9,-,N/A,,Clear,240,2013-04-08 08:15:00
3:35 AM,51.8,47.8,86,29.63,10.0,SW,6.9,-,N/A,,Clear,230,2013-04-08 08:35:00
3:55 AM,50.7,46.9,87,29.62,10.0,SW,6.9,-,N/A,,Scattered Clouds,230,2013-04-08 08:55:00
4:15 AM,51.6,48.0,87,29.62,10.0,SW,9.2,-,N/A,,Overcast,220,2013-04-08 09:15:00
4:35 AM,51.1,46.4,84,29.62,10.0,SW,9.2,-,N/A,,Scattered Clouds,220,2013-04-08 09:35:00
4:55 AM,49.3,44.6,84,29.62,10.0,SW,6.9,-,N/A,,Clear,230,2013-04-08 09:55:00
5:15 AM,48.0,44.6,88,29.62,10.0,SW,6.9,-,N/A,,Clear,230,2013-04-08 10:15:00
5:35 AM,46.6,43.3,88,29.61,10.0,Calm,Calm,-,N/A,,Clear,0,2013-04-08 10:35:00
5:55 AM,46.8,44.4,92,29.62,10.0,Calm,Calm,-,N/A,,Clear,0,2013-04-08 10:55:00
6:15 AM,46.4,44.1,92,29.64,10.0,Calm,Calm,-,N/A,,Clear,0,2013-04-08 11:15:00
6:35 AM,45.1,43.2,93,29.66,1.2,SSW,5.8,-,N/A,,Mist,200,2013-04-08 11:35:00
6:55 AM,44.1,42.3,93,29.67,5.0,SW,6.9,-,N/A,,Clear,220,2013-04-08 11:55:00
7:15 AM,43.9,42.1,93,29.68,4.0,SSW,5.8,-,N/A,,Clear,200,2013-04-08 12:15:00
7:35 AM,45.9,44.1,93,29.69,4.0,SSW,5.8,-,N/A,,Clear,210,2013-04-08 12:35:00
7:55 AM,48.4,46.6,93,29.70,5.0,South,5.8,-,N/A,,Scattered Clouds,190,2013-04-08 12:55:00
8:15 AM,49.8,47.7,92,29.71,0.2,South,3.5,-,N/A,Fog,Fog,190,2013-04-08 13:15:00
8:35 AM,50.4,48.4,93,29.70,0.2,South,4.6,-,N/A,Fog,Fog,170,2013-04-08 13:35:00
8:55 AM,50.5,48.6,93,29.71,0.5,Calm,Calm,-,N/A,Fog,Fog,0,2013-04-08 13:55:00
9:15 AM,51.3,49.3,93,29.71,4.0,Calm,Calm,-,N/A,,Overcast,0,2013-04-08 14:15:00
9:35 AM,53.8,49.5,85,29.71,10.0,Calm,Calm,-,N/A,,Overcast,0,2013-04-08 14:35:00
9:55 AM,55.6,49.3,79,29.71,10.0,Calm,Calm,-,N/A,,Mostly Cloudy,0,2013-04-08 14:55:00
10:15 AM,57.7,48.9,72,29.73,10.0,South,5.8,-,N/A,,Scattered Clouds,190,2013-04-08 15:15:00
10:55 AM,59.9,48.0,65,29.73,10.0,WSW,3.5,-,N/A,,Clear,240,2013-04-08 15:55:00
11:15 AM,60.6,47.7,62,29.73,10.0,SW,4.6,-,N/A,,Clear,220,2013-04-08 16:15:00
11:35 AM,62.6,47.1,57,29.73,10.0,WSW,5.8,-,N/A,,Clear,240,2013-04-08 16:35:00
11:55 AM,64.0,46.9,54,29.73,10.0,NNE,3.5,-,N/A,,Clear,30,2013-04-08 16:55:00
12:15 PM,65.3,45.7,49,29.73,10.0,WNW,3.5,-,N/A,,Clear,300,2013-04-08 17:15:00
12:35 PM,66.0,45.3,47,29.72,10.0,East,3.5,-,N/A,,Clear,80,2013-04-08 17:35:00
12:55 PM,67.8,44.4,43,29.72,10.0,Calm,Calm,-,N/A,,Clear,0,2013-04-08 17:55:00
1:15 PM,68.5,43.9,41,29.72,10.0,East,4.6,-,N/A,,Clear,100,2013-04-08 18:15:00
1:35 PM,70.2,43.3,38,29.71,10.0,South,4.6,-,N/A,,Clear,170,2013-04-08 18:35:00
1:55 PM,70.5,41.9,35,29.71,10.0,Calm,Calm,-,N/A,,Clear,0,2013-04-08 18:55:00
2:15 PM,72.3,42.8,35,29.71,10.0,ESE,6.9,-,N/A,,Clear,120,2013-04-08 19:15:00
2:35 PM,72.7,40.5,31,29.70,10.0,SE,6.9,-,N/A,,Clear,140,2013-04-08 19:35:00
2:55 PM,73.6,39.0,29,29.70,10.0,SSE,8.1,-,N/A,,Clear,160,2013-04-08 19:55:00
3:15 PM,75.2,38.1,26,29.69,10.0,South,6.9,-,N/A,,Clear,180,2013-04-08 20:15:00
3:35 PM,75.9,40.1,28,29.70,10.0,SSE,11.5,-,N/A,,Clear,160,2013-04-08 20:35:00
3:55 PM,75.4,40.1,28,29.70,10.0,South,9.2,20.7,N/A,,Clear,180,2013-04-08 20:55:00
4:15 PM,75.9,40.3,28,29.69,3.0,SSW,8.1,18.4,N/A,,Haze,200,2013-04-08 21:15:00
4:35 PM,75.7,42.3,30,29.69,3.0,South,10.4,17.3,N/A,,Haze,170,2013-04-08 21:35:00
4:55 PM,74.5,45.9,36,29.69,7.0,South,15.0,19.6,N/A,,Clear,170,2013-04-08 21:55:00
5:15 PM,73.6,47.5,39,29.70,10.0,South,15.0,-,N/A,,Clear,180,2013-04-08 22:15:00
5:35 PM,72.5,47.5,41,29.71,10.0,South,12.7,-,N/A,,Clear,180,2013-04-08 22:35:00
5:55 PM,71.6,49.1,45,29.72,10.0,South,15.0,-,N/A,,Clear,180,2013-04-08 22:55:00
6:15 PM,70.2,49.6,48,29.72,10.0,South,13.8,-,N/A,,Clear,190,2013-04-08 23:15:00
6:35 PM,69.8,49.6,49,29.72,10.0,SSE,6.9,-,N/A,,Clear,160,2013-04-08 23:35:00
6:55 PM,69.3,50.2,51,29.73,10.0,SSE,5.8,-,N/A,,Clear,160,2013-04-08 23:55:00
7:15 PM,68.2,50.0,52,29.74,10.0,South,6.9,-,N/A,,Clear,170,2013-04-09 00:15:00
7:35 PM,65.7,49.6,56,29.74,10.0,ESE,5.8,-,N/A,,Clear,120,2013-04-09 00:35:00
7:55 PM,64.6,49.8,59,29.76,5.0,SE,5.8,-,N/A,,Haze,130,2013-04-09 00:55:00
8:15 PM,64.6,50.2,60,29.76,10.0,SE,4.6,-,N/A,,Clear,130,2013-04-09 01:15:00
8:35 PM,62.1,48.9,62,29.77,5.0,East,5.8,-,N/A,,Haze,100,2013-04-09 01:35:00
8:55 PM,61.5,49.1,64,29.77,10.0,East,5.8,-,N/A,,Clear,90,2013-04-09 01:55:00
9:15 PM,61.9,50.0,65,29.78,10.0,East,4.6,-,N/A,,Clear,90,2013-04-09 02:15:00
9:35 PM,61.5,50.0,66,29.79,10.0,East,4.6,-,N/A,,Clear,90,2013-04-09 02:35:00
9:55 PM,59.4,48.7,68,29.78,10.0,East,6.9,-,N/A,,Scattered Clouds,100,2013-04-09 02:55:00
10:15 PM,60.8,49.8,67,29.79,10.0,ESE,8.1,-,N/A,,Scattered Clouds,120,2013-04-09 03:15:00
10:35 PM,61.9,50.2,65,29.79,10.0,East,8.1,-,N/A,,Scattered Clouds,100,2013-04-09 03:35:00
10:55 PM,61.9,50.4,66,29.79,10.0,East,6.9,-,N/A,,Scattered Clouds,80,2013-04-09 03:55:00
11:15 PM,62.1,50.9,67,29.79,10.0,ENE,9.2,-,N/A,,Scattered Clouds,70,2013-04-09 04:15:00
11:35 PM,62.4,50.5,65,29.77,10.0,NE,11.5,16.1,N/A,,Mostly Cloudy,40,2013-04-09 04:35:00
11:55 PM,59.0,50.9,74,29.75,7.0,NE,15.0,-,N/A,,Mostly Cloudy,50,2013-04-09 04:55:00